Time,TemperatureF,DewpointF,PressureIn,WindDirection,WindDirectionDegrees,WindSpeedMPH,WindSpeedGustMPH,Humidity,HourlyPrecipIn,Conditions,Clouds,dailyrainin,SoftwareType,DateUTC
2013-01-23 00:03:00,-999.0,-99.9,30.00,East,90,1.7,3.4,-999,0.00,,,0.00,WSDL version 420,2013-01-23 05:03:00,
2013-01-23 00:04:00,10.0,-6.3,30.00,ENE,75,1.5,2.7,43,0.00,,,0.00,WSDL version 420,2013-01-23 05:04:00,
2013-01-23 00:08:00,9.8,-6.4,30.00,SW,219,1.5,3.4,43,0.00,,,0.00,WSDL version 420,2013-01-23 05:08:00,
2013-01-23 00:14:00,10.0,-6.2,30.00,South,173,2.6,3.4,43,0.00,,,0.00,WSDL version 420,2013-01-23 05:14:00,
2013-01-23 00:20:00,9.7,-6.5,30.00,SSW,210,0.7,2.9,43,0.00,,,0.00,WSDL version 420,2013-01-23 05:20:00,
2013-01-23 00:26:00,9.6,-6.7,30.00,South,169,1.2,3.4,43,0.00,,,0.00,WSDL version 420,2013-01-23 05:26:00,
2013-01-23 00:28:00,9.6,-6.6,30.00,East,98,1.8,3.4,43,0.00,,,0.00,WSDL version 420,2013-01-23 05:28:00,
2013-01-23 00:34:00,9.7,-6.5,30.00,WSW,248,0.6,3.4,43,0.00,,,0.00,WSDL version 420,2013-01-23 05:34:00,
2013-01-23 00:40:00,9.5,-6.7,30.00,SSW,195,0.4,4.9,43,0.00,,,0.00,WSDL version 420,2013-01-23 05:40:00,
2013-01-23 00:46:00,9.6,-6.6,30.00,SSW,195,1.9,3.8,43,0.00,,,0.00,WSDL version 420,2013-01-23 05:46:00,
2013-01-23 00:53:00,9.4,-6.8,30.00,SSE,158,0.0,3.8,43,0.00,,,0.00,WSDL version 420,2013-01-23 05:53:00,
2013-01-23 00:59:00,9.3,-6.9,30.00,SE,143,2.1,2.9,43,0.00,,,0.00,WSDL version 420,2013-01-23 05:59:00,
2013-01-23 01:05:00,9.0,-7.2,30.00,South,176,1.1,2.5,43,0.00,,,0.00,WSDL version 420,2013-01-23 06:05:00,
2013-01-23 01:11:00,9.3,-6.9,30.00,WNW,300,0.4,1.6,43,0.00,,,0.00,WSDL version 420,2013-01-23 06:11:00,
2013-01-23 01:17:00,8.7,-7.5,30.00,SE,135,3.4,3.4,43,0.00,,,0.00,WSDL version 420,2013-01-23 06:17:00,
2013-01-23 01:23:00,9.2,-7.0,30.00,South,188,1.8,4.3,43,0.00,,,0.00,WSDL version 420,2013-01-23 06:23:00,
2013-01-23 01:29:00,9.1,-7.1,30.00,SE,128,2.2,3.1,43,0.00,,,0.00,WSDL version 420,2013-01-23 06:29:00,
2013-01-23 01:35:00,8.9,-7.3,30.00,South,186,2.6,3.8,43,0.00,,,0.00,WSDL version 420,2013-01-23 06:35:00,
2013-01-23 01:42:00,8.8,-7.4,30.00,ESE,105,2.3,3.8,43,0.00,,,0.00,WSDL version 420,2013-01-23 06:42:00,
2013-01-23 01:48:00,8.7,-7.5,30.00,South,173,3.4,4.0,43,0.00,,,0.00,WSDL version 420,2013-01-23 06:48:00,
2013-01-23 01:54:00,8.8,-7.4,30.00,WSW,242,1.9,4.0,43,0.00,,,0.00,WSDL version 420,2013-01-23 06:54:00,
2013-01-23 02:00:00,8.8,-7.4,30.00,South,188,2.5,4.0,43,0.00,,,0.00,WSDL version 420,2013-01-23 07:00:00,
2013-01-23 02:08:00,8.6,-7.5,30.00,South,169,1.8,3.6,43,0.00,,,0.00,WSDL version 420,2013-01-23 07:08:00,
2013-01-23 02:14:00,8.7,-7.5,30.00,SE,124,1.2,2.7,43,0.00,,,0.00,WSDL version 420,2013-01-23 07:14:00,
2013-01-23 02:20:00,8.8,-7.4,30.00,SW,218,1.7,2.7,43,0.00,,,0.00,WSDL version 420,2013-01-23 07:20:00,
2013-01-23 02:26:00,8.9,-7.3,30.00,SW,225,1.6,4.0,43,0.00,,,0.00,WSDL version 420,2013-01-23 07:26:00,
2013-01-23 02:32:00,8.8,-7.3,30.00,ENE,68,3.9,5.4,43,0.00,,,0.00,WSDL version 420,2013-01-23 07:32:00,
2013-01-23 02:39:00,8.6,-7.5,30.00,ESE,105,2.2,5.4,43,0.00,,,0.00,WSDL version 420,2013-01-23 07:39:00,
2013-01-23 02:45:00,8.7,-7.5,30.03,SSE,150,2.0,5.6,43,0.00,,,0.00,WSDL version 420,2013-01-23 07:45:00,
2013-01-23 02:51:00,8.6,-7.5,30.03,SW,219,0.8,5.6,43,0.00,,,0.00,WSDL version 420,2013-01-23 07:51:00,
2013-01-23 02:57:00,8.6,-7.5,30.03,South,180,2.7,2.9,43,0.00,,,0.00,WSDL version 420,2013-01-23 07:57:00,
2013-01-23 03:03:00,8.4,-7.8,30.03,South,173,2.1,2.7,43,0.00,,,0.00,WSDL version 420,2013-01-23 08:03:00,
2013-01-23 03:09:00,8.4,-7.7,30.03,SSW,203,1.8,2.5,43,0.00,,,0.00,WSDL version 420,2013-01-23 08:09:00,
2013-01-23 03:15:00,8.5,-7.7,30.03,SSW,203,2.5,3.6,43,0.00,,,0.00,WSDL version 420,2013-01-23 08:15:00,
2013-01-23 03:21:00,8.5,-7.6,30.03,South,188,0.9,3.6,43,0.00,,,0.00,WSDL version 420,2013-01-23 08:21:00,
2013-01-23 03:27:00,8.2,-7.9,30.03,SSW,203,3.8,4.0,43,0.00,,,0.00,WSDL version 420,2013-01-23 08:27:00,
2013-01-23 03:33:00,8.0,-8.1,30.03,NNE,28,3.0,4.3,43,0.00,,,0.00,WSDL version 420,2013-01-23 08:33:00,
2013-01-23 03:39:00,8.2,-7.9,30.03,SE,124,2.9,4.3,43,0.00,,,0.00,WSDL version 420,2013-01-23 08:39:00,
2013-01-23 03:46:00,8.2,-7.9,30.03,South,180,2.4,3.4,43,0.00,,,0.00,WSDL version 420,2013-01-23 08:46:00,
2013-01-23 03:52:00,8.2,-7.9,30.03,SSE,152,2.5,3.4,43,0.00,,,0.00,WSDL version 420,2013-01-23 08:52:00,
2013-01-23 03:58:00,8.2,-7.9,30.00,SSW,203,0.9,3.4,43,0.00,,,0.00,WSDL version 420,2013-01-23 08:58:00,
2013-01-23 04:04:00,8.2,-7.9,30.00,NE,53,1.6,3.6,43,0.00,,,0.00,WSDL version 420,2013-01-23 09:04:00,
2013-01-23 04:10:00,8.6,-7.5,30.00,East,90,2.1,2.9,43,0.00,,,0.00,WSDL version 420,2013-01-23 09:10:00,
2013-01-23 04:16:00,8.4,-7.7,30.03,SW,225,2.9,3.6,43,0.00,,,0.00,WSDL version 420,2013-01-23 09:16:00,
2013-01-23 04:22:00,8.1,-8.0,30.03,SSW,195,3.0,4.0,43,0.00,,,0.00,WSDL version 420,2013-01-23 09:22:00,
2013-01-23 04:28:00,8.4,-7.8,30.03,SE,135,1.2,4.0,43,0.00,,,0.00,WSDL version 420,2013-01-23 09:28:00,
2013-01-23 04:34:00,8.4,-7.7,30.03,SSE,165,3.1,4.0,43,0.00,,,0.00,WSDL version 420,2013-01-23 09:34:00,
2013-01-23 04:40:00,8.2,-8.0,30.03,WSW,240,1.7,4.0,43,0.00,,,0.00,WSDL version 420,2013-01-23 09:40:00,
2013-01-23 04:47:00,7.9,-8.2,30.00,SSE,165,2.6,3.8,43,0.00,,,0.00,WSDL version 420,2013-01-23 09:47:00,
2013-01-23 04:53:00,7.7,-8.4,30.00,WSW,240,2.3,4.9,43,0.00,,,0.00,WSDL version 420,2013-01-23 09:53:00,
2013-01-23 04:58:00,7.9,-8.2,30.03,ESE,113,2.2,4.0,43,0.00,,,0.00,WSDL version 420,2013-01-23 09:58:00,
2013-01-23 05:04:00,8.3,-7.8,30.03,North,353,1.6,2.7,43,0.00,,,0.00,WSDL version 420,2013-01-23 10:04:00,
2013-01-23 05:10:00,8.1,-8.1,30.03,SE,128,2.9,5.6,43,0.00,,,0.00,WSDL version 420,2013-01-23 10:10:00,
2013-01-23 05:16:00,7.8,-8.3,30.03,NE,34,4.1,5.6,43,0.00,,,0.00,WSDL version 420,2013-01-23 10:16:00,
2013-01-23 05:22:00,7.6,-8.4,30.03,SE,143,0.5,5.4,43,0.00,,,0.00,WSDL version 420,2013-01-23 10:22:00,
2013-01-23 05:28:00,7.9,-8.2,30.03,SSW,195,0.5,3.8,43,0.00,,,0.00,WSDL version 420,2013-01-23 10:28:00,
2013-01-23 05:35:00,7.9,-8.2,30.03,SSE,158,2.1,3.8,43,0.00,,,0.00,WSDL version 420,2013-01-23 10:35:00,
2013-01-23 05:40:00,7.9,-8.2,30.03,SW,225,1.0,2.5,43,0.00,,,0.00,WSDL version 420,2013-01-23 10:40:00,
2013-01-23 05:46:00,7.8,-8.3,30.03,South,173,0.0,2.7,43,0.00,,,0.00,WSDL version 420,2013-01-23 10:46:00,
2013-01-23 05:52:00,7.8,-8.3,30.03,SW,225,1.2,2.7,43,0.00,,,0.00,WSDL version 420,2013-01-23 10:52:00,
2013-01-23 05:58:00,7.6,-8.4,30.03,SSE,163,1.1,3.4,43,0.00,,,0.00,WSDL version 420,2013-01-23 10:58:00,
2013-01-23 06:05:00,7.8,-8.3,30.03,ESE,113,1.3,3.4,43,0.00,,,0.00,WSDL version 420,2013-01-23 11:05:00,
2013-01-23 06:11:00,8.0,-8.1,30.03,South,173,1.2,2.5,43,0.00,,,0.00,WSDL version 420,2013-01-23 11:11:00,
2013-01-23 06:17:00,7.8,-8.3,30.03,SSE,158,2.9,4.3,43,0.00,,,0.00,WSDL version 420,2013-01-23 11:17:00,
2013-01-23 06:23:00,7.6,-8.5,30.03,NNE,32,1.3,4.3,43,0.00,,,0.00,WSDL version 420,2013-01-23 11:23:00,
2013-01-23 06:29:00,7.7,-8.4,30.03,South,173,1.5,3.1,43,0.00,,,0.00,WSDL version 420,2013-01-23 11:29:00,
2013-01-23 06:35:00,7.6,-8.5,30.03,SSW,208,1.8,2.2,43,0.00,,,0.00,WSDL version 420,2013-01-23 11:35:00,
2013-01-23 06:43:00,7.8,-8.3,30.03,South,180,2.0,2.2,43,0.00,,,0.00,WSDL version 420,2013-01-23 11:43:00,
2013-01-23 06:49:00,7.8,-8.3,30.03,SSE,165,1.2,2.0,43,0.00,,,0.00,WSDL version 420,2013-01-23 11:49:00,
2013-01-23 06:55:00,7.6,-8.4,30.03,SE,143,2.5,2.7,43,0.00,,,0.00,WSDL version 420,2013-01-23 11:55:00,
2013-01-23 07:02:00,7.8,-8.3,30.03,SW,225,3.2,5.8,43,0.00,,,0.00,WSDL version 420,2013-01-23 12:02:00,
2013-01-23 07:08:00,7.7,-8.4,30.03,SE,146,0.8,5.8,43,0.00,,,0.00,WSDL version 420,2013-01-23 12:08:00,
2013-01-23 07:14:00,7.3,-8.7,30.03,SSW,203,1.6,2.0,43,0.00,,,0.00,WSDL version 420,2013-01-23 12:14:00,
2013-01-23 07:20:00,7.4,-8.7,30.03,SW,218,1.0,2.9,43,0.00,,,0.00,WSDL version 420,2013-01-23 12:20:00,
2013-01-23 07:26:00,7.4,-8.6,30.03,SW,214,2.2,3.8,43,0.00,,,0.00,WSDL version 420,2013-01-23 12:26:00,
2013-01-23 07:33:00,7.5,-8.6,30.03,SW,233,1.9,3.4,43,0.00,,,0.00,WSDL version 420,2013-01-23 12:33:00,
2013-01-23 07:39:00,7.5,-8.6,30.03,South,173,2.1,2.9,43,0.00,,,0.00,WSDL version 420,2013-01-23 12:39:00,
2013-01-23 07:45:00,7.8,-8.3,30.03,SSW,203,0.7,3.1,43,0.00,,,0.00,WSDL version 420,2013-01-23 12:45:00,
2013-01-23 07:51:00,7.6,-8.5,30.03,South,174,2.0,3.6,43,0.00,,,0.00,WSDL version 420,2013-01-23 12:51:00,
2013-01-23 07:57:00,7.9,-8.2,30.03,ESE,113,1.3,3.6,43,0.00,,,0.00,WSDL version 420,2013-01-23 12:57:00,
2013-01-23 08:03:00,8.3,-7.8,30.03,ESE,113,1.3,2.2,43,0.00,,,0.00,WSDL version 420,2013-01-23 13:03:00,
2013-01-23 08:09:00,8.7,-7.5,30.03,ESE,113,1.3,1.3,43,0.00,,,0.00,WSDL version 420,2013-01-23 13:09:00,
2013-01-23 08:15:00,8.7,-7.5,30.03,North,-999,-999.0,-999.0,43,0.00,,,0.00,WSDL version 420,2013-01-23 13:15:00,
2013-01-23 08:21:00,9.0,-7.2,30.03,SSE,158,1.6,1.6,43,0.00,,,0.00,WSDL version 420,2013-01-23 13:21:00,
2013-01-23 08:27:00,9.3,-6.9,30.06,South,188,2.6,4.3,43,0.00,,,0.00,WSDL version 420,2013-01-23 13:27:00,
2013-01-23 08:33:00,9.4,-6.8,30.06,South,180,2.5,4.0,43,0.00,,,0.00,WSDL version 420,2013-01-23 13:33:00,
2013-01-23 08:40:00,9.6,-6.7,30.06,SSE,150,1.3,4.7,43,0.00,,,0.00,WSDL version 420,2013-01-23 13:40:00,
2013-01-23 08:46:00,9.8,-6.4,30.06,SSE,158,3.2,5.8,43,0.00,,,0.00,WSDL version 420,2013-01-23 13:46:00,
2013-01-23 08:52:00,10.3,-6.0,30.06,SSW,195,3.3,4.3,43,0.00,,,0.00,WSDL version 420,2013-01-23 13:52:00,
2013-01-23 08:58:00,10.6,-5.7,30.06,South,180,2.5,4.3,43,0.00,,,0.00,WSDL version 420,2013-01-23 13:58:00,
2013-01-23 09:04:00,11.2,-5.1,30.06,SE,128,2.8,4.0,43,0.00,,,0.00,WSDL version 420,2013-01-23 14:04:00,
2013-01-23 09:10:00,12.1,-4.2,30.06,WSW,240,2.8,3.8,43,0.00,,,0.00,WSDL version 420,2013-01-23 14:10:00,
2013-01-23 09:16:00,12.4,-4.0,30.06,SE,135,2.8,3.8,43,0.00,,,0.00,WSDL version 420,2013-01-23 14:16:00,
2013-01-23 09:22:00,12.9,-3.6,30.06,South,180,1.9,3.8,43,0.00,,,0.00,WSDL version 420,2013-01-23 14:22:00,
2013-01-23 09:28:00,13.2,-3.3,30.06,SE,143,2.1,3.8,43,0.00,,,0.00,WSDL version 420,2013-01-23 14:28:00,
2013-01-23 09:34:00,13.6,-2.9,30.06,SSE,158,3.9,4.3,43,0.00,,,0.00,WSDL version 420,2013-01-23 14:34:00,
2013-01-23 09:40:00,13.9,-2.2,30.06,SSW,195,2.6,4.7,46,0.00,,,0.00,WSDL version 420,2013-01-23 14:40:00,
2013-01-23 09:46:00,14.5,-1.2,30.06,SSE,152,2.9,3.8,45,0.00,,,0.00,WSDL version 420,2013-01-23 14:46:00,
2013-01-23 09:52:00,14.5,-1.2,30.06,South,180,4.0,4.7,45,0.00,,,0.00,WSDL version 420,2013-01-23 14:52:00,
2013-01-23 09:58:00,15.1,-0.6,30.06,ESE,105,3.3,5.4,45,0.00,,,0.00,WSDL version 420,2013-01-23 14:58:00,
2013-01-23 10:04:00,15.1,-0.6,30.06,SE,143,4.7,6.0,45,0.00,,,0.00,WSDL version 420,2013-01-23 15:04:00,
2013-01-23 10:10:00,15.5,-0.4,30.06,WSW,248,1.9,6.0,44,0.00,,,0.00,WSDL version 420,2013-01-23 15:10:00,
2013-01-23 10:16:00,16.0,0.0,30.06,South,169,4.4,5.6,44,0.00,,,0.00,WSDL version 420,2013-01-23 15:16:00,
2013-01-23 10:22:00,16.2,-0.1,30.06,NE,53,3.2,6.3,44,0.00,,,0.00,WSDL version 420,2013-01-23 15:22:00,
2013-01-23 10:28:00,16.0,-0.2,30.06,South,169,2.6,6.3,44,0.00,,,0.00,WSDL version 420,2013-01-23 15:28:00,
2013-01-23 10:34:00,16.6,0.3,30.06,ESE,120,1.6,4.3,44,0.00,,,0.00,WSDL version 420,2013-01-23 15:34:00,
2013-01-23 10:40:00,16.7,0.4,30.06,SE,135,3.0,4.9,44,0.00,,,0.00,WSDL version 420,2013-01-23 15:40:00,
2013-01-23 10:46:00,17.4,1.1,30.06,SSE,158,2.9,4.9,44,0.00,,,0.00,WSDL version 420,2013-01-23 15:46:00,
2013-01-23 10:52:00,17.2,0.7,30.06,SE,143,4.6,5.8,43,0.00,,,0.00,WSDL version 420,2013-01-23 15:52:00,
2013-01-23 10:58:00,17.3,1.0,30.06,SE,135,4.7,5.8,44,0.00,,,0.00,WSDL version 420,2013-01-23 15:58:00,
2013-01-23 11:04:00,17.2,0.6,30.06,South,180,2.9,5.8,43,0.00,,,0.00,WSDL version 420,2013-01-23 16:04:00,
2013-01-23 11:11:00,18.0,1.2,30.06,South,180,2.7,5.4,43,0.00,,,0.00,WSDL version 420,2013-01-23 16:11:00,
2013-01-23 11:17:00,18.3,1.5,30.03,South,180,2.2,5.4,43,0.00,,,0.00,WSDL version 420,2013-01-23 16:17:00,
2013-01-23 11:23:00,18.0,1.2,30.03,South,180,3.2,7.4,43,0.00,,,0.00,WSDL version 420,2013-01-23 16:23:00,
2013-01-23 11:29:00,18.4,1.6,30.03,SSW,203,2.5,7.4,43,0.00,,,0.00,WSDL version 420,2013-01-23 16:29:00,
2013-01-23 11:35:00,18.5,1.7,30.03,ESE,113,3.0,5.6,43,0.00,,,0.00,WSDL version 420,2013-01-23 16:35:00,
2013-01-23 11:41:00,18.7,1.4,30.03,SE,146,2.7,5.4,42,0.00,,,0.00,WSDL version 420,2013-01-23 16:41:00,
2013-01-23 11:47:00,18.3,1.4,30.03,East,98,1.9,5.4,42,0.00,,,0.00,WSDL version 420,2013-01-23 16:47:00,
2013-01-23 11:53:00,18.5,1.2,30.03,SW,225,2.3,5.6,41,0.00,,,0.00,WSDL version 420,2013-01-23 16:53:00,
2013-01-23 11:59:00,20.1,2.5,30.00,SE,135,2.0,4.0,42,0.00,,,0.00,WSDL version 420,2013-01-23 16:59:00,
2013-01-23 12:05:00,20.3,2.6,30.00,South,180,2.5,6.0,41,0.00,,,0.00,WSDL version 420,2013-01-23 17:05:00,
2013-01-23 12:11:00,19.8,1.0,30.00,SE,129,2.7,6.0,39,0.00,,,0.00,WSDL version 420,2013-01-23 17:11:00,
2013-01-23 12:17:00,19.1,1.5,30.00,NNW,343,2.8,4.7,42,0.00,,,0.00,WSDL version 420,2013-01-23 17:17:00,
2013-01-23 12:23:00,19.0,0.7,30.00,ESE,113,2.5,4.9,40,0.00,,,0.00,WSDL version 420,2013-01-23 17:23:00,
2013-01-23 12:29:00,17.7,0.0,30.00,SSW,203,2.9,3.6,41,0.00,,,0.00,WSDL version 420,2013-01-23 17:29:00,
2013-01-23 12:35:00,18.0,0.3,30.00,South,188,3.5,5.4,41,0.00,,,0.00,WSDL version 420,2013-01-23 17:35:00,
2013-01-23 12:41:00,16.6,-1.5,30.00,SSE,150,2.5,4.7,40,0.00,,,0.00,WSDL version 420,2013-01-23 17:41:00,
2013-01-23 12:47:00,17.1,-0.9,30.00,NE,39,2.7,4.7,41,0.00,,,0.00,WSDL version 420,2013-01-23 17:47:00,
2013-01-23 12:53:00,17.5,-0.3,30.00,SE,128,2.9,3.6,41,0.00,,,0.00,WSDL version 420,2013-01-23 17:53:00,
2013-01-23 12:59:00,17.2,-0.5,30.00,SE,143,3.0,5.4,41,0.00,,,0.00,WSDL version 420,2013-01-23 17:59:00,
2013-01-23 13:05:00,18.3,0.2,30.00,East,101,5.8,7.4,41,0.00,,,0.00,WSDL version 420,2013-01-23 18:05:00,
2013-01-23 13:11:00,17.6,-0.1,29.97,ESE,105,3.7,7.4,41,0.00,,,0.00,WSDL version 420,2013-01-23 18:11:00,
2013-01-23 13:17:00,17.7,-0.4,29.97,SSE,165,3.7,4.9,40,0.00,,,0.00,WSDL version 420,2013-01-23 18:17:00,
2013-01-23 13:23:00,18.3,0.5,29.97,South,173,2.5,4.7,41,0.00,,,0.00,WSDL version 420,2013-01-23 18:23:00,
2013-01-23 13:29:00,18.2,-0.4,30.00,WNW,297,3.1,3.6,39,0.00,,,0.00,WSDL version 420,2013-01-23 18:29:00,
2013-01-23 13:35:00,18.0,-0.3,30.00,SE,128,2.6,3.6,39,0.00,,,0.00,WSDL version 420,2013-01-23 18:35:00,
2013-01-23 13:42:00,18.3,0.0,29.97,NNW,345,6.3,7.8,40,0.00,,,0.00,WSDL version 420,2013-01-23 18:42:00,
2013-01-23 13:48:00,18.9,0.5,29.97,WSW,255,1.6,7.8,39,0.00,,,0.00,WSDL version 420,2013-01-23 18:48:00,
2013-01-23 13:54:00,19.0,0.0,29.97,East,98,2.8,5.6,38,0.00,,,0.00,WSDL version 420,2013-01-23 18:54:00,
2013-01-23 14:00:00,18.3,-0.6,30.00,South,180,4.3,6.5,40,0.00,,,0.00,WSDL version 420,2013-01-23 19:00:00,
2013-01-23 14:06:00,18.3,-1.1,30.00,NNE,23,4.0,6.5,37,0.00,,,0.00,WSDL version 420,2013-01-23 19:06:00,
2013-01-23 14:12:00,19.0,-0.5,29.97,South,180,3.0,6.3,37,0.00,,,0.00,WSDL version 420,2013-01-23 19:12:00,
2013-01-23 14:18:00,19.2,-0.2,29.97,South,180,4.0,4.0,38,0.00,,,0.00,WSDL version 420,2013-01-23 19:18:00,
2013-01-23 14:24:00,18.9,-0.9,29.97,SSW,210,4.2,6.7,37,0.00,,,0.00,WSDL version 420,2013-01-23 19:24:00,
2013-01-23 14:30:00,18.1,-1.5,30.00,West,270,2.5,4.9,37,0.00,,,0.00,WSDL version 420,2013-01-23 19:30:00,
2013-01-23 14:36:00,18.1,-1.5,30.00,South,180,4.0,4.0,37,0.00,,,0.00,WSDL version 420,2013-01-23 19:36:00,
2013-01-23 14:42:00,18.4,-1.3,29.97,South,180,2.6,6.3,37,0.00,,,0.00,WSDL version 420,2013-01-23 19:42:00,
2013-01-23 14:48:00,18.4,-1.3,29.97,SSE,150,4.3,6.3,37,0.00,,,0.00,WSDL version 420,2013-01-23 19:48:00,
2013-01-23 14:54:00,17.6,-1.8,29.97,SE,135,2.5,4.9,37,0.00,,,0.00,WSDL version 420,2013-01-23 19:54:00,
2013-01-23 15:00:00,17.7,-2.0,30.00,ESE,120,4.8,5.6,37,0.00,,,0.00,WSDL version 420,2013-01-23 20:00:00,
2013-01-23 15:06:00,17.8,-1.9,30.00,ESE,120,3.4,5.6,37,-99.99,,,-99.99,WSDL version 420,2013-01-23 20:06:00,
2013-01-23 15:12:00,17.5,-1.7,30.00,East,90,3.4,4.9,38,0.00,,,0.00,WSDL version 420,2013-01-23 20:12:00,
2013-01-23 15:18:00,17.7,-1.7,30.00,SE,135,5.8,5.8,37,0.00,,,0.00,WSDL version 420,2013-01-23 20:18:00,
2013-01-23 15:24:00,18.1,-1.5,30.00,ENE,72,3.4,5.8,37,0.00,,,0.00,WSDL version 420,2013-01-23 20:24:00,
2013-01-23 15:30:00,17.7,-1.9,30.00,SE,143,3.5,4.9,37,0.00,,,0.00,WSDL version 420,2013-01-23 20:30:00,
2013-01-23 15:36:00,17.1,-2.3,30.00,SSE,165,4.0,6.3,37,0.00,,,0.00,WSDL version 420,2013-01-23 20:36:00,
2013-01-23 15:42:00,16.6,-2.9,30.00,North,353,1.9,4.9,37,0.00,,,0.00,WSDL version 420,2013-01-23 20:42:00,
2013-01-23 15:48:00,16.5,-2.9,30.00,SSE,150,3.1,6.0,38,0.00,,,0.00,WSDL version 420,2013-01-23 20:48:00,
2013-01-23 15:54:00,16.1,-3.4,30.00,SSE,165,2.1,8.5,37,0.00,,,0.00,WSDL version 420,2013-01-23 20:54:00,
2013-01-23 16:01:00,15.8,-3.0,30.00,SSE,150,1.6,8.5,39,0.00,,,0.00,WSDL version 420,2013-01-23 21:01:00,
2013-01-23 16:07:00,15.9,-3.1,30.00,SE,135,3.0,3.4,38,0.00,,,0.00,WSDL version 420,2013-01-23 21:07:00,
2013-01-23 16:13:00,15.8,-3.2,30.00,SSW,210,1.7,4.3,38,0.00,,,0.00,WSDL version 420,2013-01-23 21:13:00,
2013-01-23 16:19:00,15.6,-3.2,30.00,SE,135,2.7,4.3,38,0.00,,,0.00,WSDL version 420,2013-01-23 21:19:00,
2013-01-23 16:25:00,15.3,-3.4,30.00,SW,225,1.7,4.5,39,0.00,,,0.00,WSDL version 420,2013-01-23 21:25:00,
2013-01-23 16:31:00,15.3,-3.4,30.00,SE,124,2.5,4.5,39,0.00,,,0.00,WSDL version 420,2013-01-23 21:31:00,
2013-01-23 16:37:00,15.4,-3.3,30.00,South,169,2.1,3.6,38,0.00,,,0.00,WSDL version 420,2013-01-23 21:37:00,
2013-01-23 16:43:00,15.1,-3.5,30.00,ESE,113,2.3,3.6,39,0.00,,,0.00,WSDL version 420,2013-01-23 21:43:00,
2013-01-23 16:49:00,15.3,-3.2,30.00,SW,214,4.0,6.5,39,0.00,,,0.00,WSDL version 420,2013-01-23 21:49:00,
2013-01-23 16:55:00,15.1,-3.4,30.00,SSE,165,2.3,6.5,39,0.00,,,0.00,WSDL version 420,2013-01-23 21:55:00,
2013-01-23 17:01:00,15.2,-3.2,30.00,ESE,120,0.5,2.9,39,0.00,,,0.00,WSDL version 420,2013-01-23 22:01:00,
2013-01-23 17:07:00,14.8,-3.6,30.00,NE,45,0.7,2.2,39,0.00,,,0.00,WSDL version 420,2013-01-23 22:07:00,
2013-01-23 17:13:00,15.0,-3.3,30.00,NW,323,0.4,1.6,40,0.00,,,0.00,WSDL version 420,2013-01-23 22:13:00,
2013-01-23 17:19:00,14.8,-2.9,30.00,SE,129,1.3,2.0,41,0.00,,,0.00,WSDL version 420,2013-01-23 22:19:00,
2013-01-23 17:25:00,14.9,-2.9,30.00,ENE,75,2.4,3.8,41,0.00,,,0.00,WSDL version 420,2013-01-23 22:25:00,
2013-01-23 17:31:00,14.6,-2.8,30.00,East,90,1.7,2.5,41,0.00,,,0.00,WSDL version 420,2013-01-23 22:31:00,
2013-01-23 17:37:00,14.2,-3.2,30.00,ENE,68,1.9,2.9,41,0.00,,,0.00,WSDL version 420,2013-01-23 22:37:00,
2013-01-23 17:43:00,14.1,-3.3,30.03,NE,45,0.6,2.9,41,0.00,,,0.00,WSDL version 420,2013-01-23 22:43:00,
2013-01-23 17:55:00,14.2,-3.2,30.03,North,360,0.0,0.0,41,0.00,,,0.00,WSDL version 420,2013-01-23 22:55:00,
2013-01-23 18:01:00,14.4,-2.6,30.03,North,-999,-999.0,-999.0,42,0.00,,,0.00,WSDL version 420,2013-01-23 23:01:00,
2013-01-23 18:07:00,14.5,-2.5,30.03,North,-999,-999.0,-999.0,42,0.00,,,0.00,WSDL version 420,2013-01-23 23:07:00,
2013-01-23 18:13:00,14.2,-2.5,30.03,North,-999,-999.0,-999.0,42,0.00,,,0.00,WSDL version 420,2013-01-23 23:13:00,
2013-01-23 18:19:00,14.1,-2.8,30.03,NE,45,0.2,1.3,43,0.00,,,0.00,WSDL version 420,2013-01-23 23:19:00,
2013-01-23 18:25:00,14.1,-2.4,30.03,SSW,203,0.0,1.3,43,0.00,,,0.00,WSDL version 420,2013-01-23 23:25:00,
2013-01-23 18:31:00,14.1,-2.4,30.03,NNE,23,0.0,0.9,43,0.00,,,0.00,WSDL version 420,2013-01-23 23:31:00,
2013-01-23 18:37:00,13.8,-2.8,30.03,NNE,23,0.0,0.0,43,0.00,,,0.00,WSDL version 420,2013-01-23 23:37:00,
2013-01-23 18:43:00,13.9,-2.5,30.03,North,-999,-999.0,-999.0,44,0.00,,,0.00,WSDL version 420,2013-01-23 23:43:00,
2013-01-23 18:49:00,14.2,-1.9,30.03,North,-999,-999.0,-999.0,44,0.00,,,0.00,WSDL version 420,2013-01-23 23:49:00,
2013-01-23 18:55:00,13.3,-2.8,30.03,North,-999,-999.0,-999.0,44,0.00,,,0.00,WSDL version 420,2013-01-23 23:55:00,
2013-01-23 19:01:00,13.5,-2.6,30.03,North,-999,-999.0,-999.0,44,0.00,,,0.00,WSDL version 420,2013-01-24 00:01:00,
2013-01-23 19:07:00,13.7,-2.4,30.03,North,-999,-999.0,-999.0,44,0.00,,,0.00,WSDL version 420,2013-01-24 00:07:00,
2013-01-23 19:13:00,12.9,-3.1,30.03,North,-999,-999.0,-999.0,44,0.00,,,0.00,WSDL version 420,2013-01-24 00:13:00,
2013-01-23 19:19:00,13.4,-2.6,30.03,North,-999,-999.0,-999.0,44,0.00,,,0.00,WSDL version 420,2013-01-24 00:19:00,
2013-01-23 19:25:00,12.9,-3.1,30.03,North,-999,-999.0,-999.0,44,0.00,,,0.00,WSDL version 420,2013-01-24 00:25:00,
2013-01-23 19:31:00,12.6,-3.4,30.03,North,-999,-999.0,-999.0,44,0.00,,,0.00,WSDL version 420,2013-01-24 00:31:00,
2013-01-23 19:37:00,12.7,-3.3,30.03,North,-999,-999.0,-999.0,44,0.00,,,0.00,WSDL version 420,2013-01-24 00:37:00,
2013-01-23 19:43:00,12.3,-3.7,30.03,North,-999,-999.0,-999.0,44,0.00,,,0.00,WSDL version 420,2013-01-24 00:43:00,
2013-01-23 19:49:00,11.9,-4.0,30.03,North,-999,-999.0,-999.0,44,0.00,,,0.00,WSDL version 420,2013-01-24 00:49:00,
2013-01-23 19:55:00,11.9,-4.0,30.03,North,-999,-999.0,-999.0,44,0.00,,,0.00,WSDL version 420,2013-01-24 00:55:00,
2013-01-23 20:02:00,11.9,-4.0,30.03,North,-999,-999.0,-999.0,44,0.00,,,0.00,WSDL version 420,2013-01-24 01:02:00,
2013-01-23 20:08:00,11.8,-4.2,30.03,North,-999,-999.0,-999.0,44,0.00,,,0.00,WSDL version 420,2013-01-24 01:08:00,
2013-01-23 20:14:00,12.1,-3.8,30.06,North,-999,-999.0,-999.0,44,0.00,,,0.00,WSDL version 420,2013-01-24 01:14:00,
2013-01-23 20:20:00,12.0,-4.0,30.06,North,-999,-999.0,-999.0,44,-99.99,,,-99.99,WSDL version 420,2013-01-24 01:20:00,
2013-01-23 20:26:00,11.8,-4.1,30.06,North,-999,-999.0,-999.0,44,0.00,,,0.00,WSDL version 420,2013-01-24 01:26:00,
2013-01-23 20:32:00,11.7,-4.3,30.06,North,-999,-999.0,-999.0,44,0.00,,,0.00,WSDL version 420,2013-01-24 01:32:00,
2013-01-23 20:38:00,11.5,-4.4,30.06,North,360,0.0,0.0,44,0.00,,,0.00,WSDL version 420,2013-01-24 01:38:00,
2013-01-23 20:44:00,11.7,-4.2,30.03,North,360,0.0,0.0,44,0.00,,,0.00,WSDL version 420,2013-01-24 01:44:00,
2013-01-23 20:50:00,11.8,-4.1,30.03,North,360,0.0,0.0,44,0.00,,,0.00,WSDL version 420,2013-01-24 01:50:00,
2013-01-23 20:56:00,11.5,-4.4,30.03,North,360,0.0,0.0,44,0.00,,,0.00,WSDL version 420,2013-01-24 01:56:00,
2013-01-23 21:02:00,11.4,-4.5,30.03,North,360,0.0,0.0,44,0.00,,,0.00,WSDL version 420,2013-01-24 02:02:00,
2013-01-23 21:08:00,11.4,-4.5,30.03,NNW,338,0.0,0.0,44,0.00,,,0.00,WSDL version 420,2013-01-24 02:08:00,
2013-01-23 21:14:00,11.4,-4.5,30.03,WNW,293,0.0,0.0,44,0.00,,,0.00,WSDL version 420,2013-01-24 02:14:00,
2013-01-23 21:20:00,11.1,-4.8,30.03,WNW,293,0.0,0.0,44,0.00,,,0.00,WSDL version 420,2013-01-24 02:20:00,
2013-01-23 21:26:00,10.9,-5.0,30.03,NW,315,0.0,0.0,44,0.00,,,0.00,WSDL version 420,2013-01-24 02:26:00,
2013-01-23 21:32:00,10.7,-5.2,30.03,NW,315,0.0,0.0,44,0.00,,,0.00,WSDL version 420,2013-01-24 02:32:00,
2013-01-23 21:38:00,10.3,-5.6,30.03,NW,315,0.0,0.0,44,0.00,,,0.00,WSDL version 420,2013-01-24 02:38:00,
2013-01-23 21:44:00,10.3,-5.6,30.03,NW,315,0.0,0.0,44,0.00,,,0.00,WSDL version 420,2013-01-24 02:44:00,
2013-01-23 21:50:00,10.9,-4.9,30.03,NW,315,0.0,0.0,44,0.00,,,0.00,WSDL version 420,2013-01-24 02:50:00,
2013-01-23 21:56:00,10.5,-5.3,30.03,NW,315,0.0,0.0,44,0.00,,,0.00,WSDL version 420,2013-01-24 02:56:00,
2013-01-23 22:02:00,10.4,-5.4,30.03,NW,315,0.0,0.0,44,0.00,,,0.00,WSDL version 420,2013-01-24 03:02:00,
2013-01-23 22:08:00,10.3,-5.6,30.03,NW,315,0.0,0.0,44,0.00,,,0.00,WSDL version 420,2013-01-24 03:08:00,
2013-01-23 22:14:00,10.1,-5.7,30.03,NW,315,0.0,0.0,44,0.00,,,0.00,WSDL version 420,2013-01-24 03:14:00,
2013-01-23 22:20:00,10.1,-5.7,30.03,NE,45,0.0,0.0,44,0.00,,,0.00,WSDL version 420,2013-01-24 03:20:00,
2013-01-23 22:27:00,10.0,-5.8,30.03,NE,45,0.0,0.0,44,0.00,,,0.00,WSDL version 420,2013-01-24 03:27:00,
2013-01-23 22:33:00,10.2,-5.6,30.03,NE,45,0.0,0.0,44,0.00,,,0.00,WSDL version 420,2013-01-24 03:33:00,
2013-01-23 22:39:00,10.0,-5.8,30.03,NE,45,0.0,0.0,44,0.00,,,0.00,WSDL version 420,2013-01-24 03:39:00,
2013-01-23 22:45:00,9.7,-6.1,30.03,NE,45,0.0,0.0,44,0.00,,,0.00,WSDL version 420,2013-01-24 03:45:00,
2013-01-23 22:51:00,9.7,-6.1,30.03,NE,45,0.0,0.0,44,0.00,,,0.00,WSDL version 420,2013-01-24 03:51:00,
2013-01-23 22:57:00,9.6,-6.2,30.03,NE,45,0.0,0.0,44,0.00,,,0.00,WSDL version 420,2013-01-24 03:57:00,
2013-01-23 23:03:00,9.5,-6.3,30.03,NE,45,0.0,0.0,44,0.00,,,0.00,WSDL version 420,2013-01-24 04:03:00,
2013-01-23 23:09:00,8.6,-7.1,30.03,NE,45,0.0,0.0,44,0.00,,,0.00,WSDL version 420,2013-01-24 04:09:00,
2013-01-23 23:15:00,9.2,-6.6,30.03,NE,45,0.0,0.0,44,0.00,,,0.00,WSDL version 420,2013-01-24 04:15:00,
2013-01-23 23:21:00,9.0,-6.8,30.03,NE,45,0.0,0.0,44,0.00,,,0.00,WSDL version 420,2013-01-24 04:21:00,
2013-01-23 23:27:00,8.9,-6.8,30.03,NE,45,0.0,0.0,44,0.00,,,0.00,WSDL version 420,2013-01-24 04:27:00,
2013-01-23 23:33:00,8.7,-7.0,30.03,NE,45,0.0,0.0,44,0.00,,,0.00,WSDL version 420,2013-01-24 04:33:00,
2013-01-23 23:39:00,8.6,-7.1,30.03,NE,45,0.0,0.0,44,0.00,,,0.00,WSDL version 420,2013-01-24 04:39:00,
2013-01-23 23:45:00,8.5,-7.2,30.03,NE,45,0.0,0.0,44,0.00,,,0.00,WSDL version 420,2013-01-24 04:45:00,
2013-01-23 23:51:00,8.5,-7.2,30.03,NE,45,0.0,0.0,44,0.00,,,0.00,WSDL version 420,2013-01-24 04:51:00,
2013-01-23 23:57:00,8.4,-7.3,30.03,NE,45,0.0,0.0,44,0.00,,,0.00,WSDL version 420,2013-01-24 04:57:00,